DW0088 Weather Reports


Display with metric or nautical units.
time (UTC)temp
F
wind
direction
speed
MPH
gust
MPH
rain 1hr
in
rain 24hr
in
rain mn
in
humidity
%
barometer
mb
20260904025004 69 181 11.0 22.0 0.00 0.05 0.00 91 1013.5
20260904024004 69 183 10.0 18.0 0.00 0.05 0.00 91 1013.8
20260904023005 69 183 11.0 22.0 0.00 0.05 0.00 91 1013.8
20260904022005 69 177 10.0 18.0 0.00 0.05 0.00 91 1013.9
20260904021005 70 179 10.0 18.0 0.00 0.05 0.00 90 1014.2
20260904020005 70 183 9.0 16.0 0.00 0.05 0.00 90 1014.2
20260904015005 70 177 10.0 18.0 0.00 0.05 0.00 91 1014.5
20260904014004 70 177 10.0 17.0 0.00 0.05 0.00 91 1014.5
20260904013005 69 181 8.0 14.0 0.00 0.05 0.00 91 1014.5
20260904012004 69 183 8.0 14.0 0.00 0.05 0.00 91 1014.7
20260904011006 69 185 8.0 17.0 0.00 0.05 0.00 91 1014.9
20260904010005 69 185 8.0 14.0 0.00 0.05 0.00 91 1014.9
20260904005006 70 187 8.0 15.0 0.00 0.05 0.00 91 1014.9
20260904004004 69 182 9.0 16.0 0.00 0.05 0.00 92 1015.0
20260904003006 69 181 10.0 16.0 0.00 0.05 0.00 91 1015.0
20260904002005 69 186 9.0 19.0 0.00 0.05 0.00 91 1015.0
20260904001005 69 186 8.0 16.0 0.00 0.05 0.00 92 1015.2
20260904000005 69 182 9.0 15.0 0.00 0.05 0.00 92 1015.2
20260903235005 69 178 9.0 16.0 0.00 0.05 0.00 92 1015.5
20260903234005 69 182 9.0 16.0 0.00 0.05 0.00 92 1015.5
20260903233005 69 181 9.0 16.0 0.00 0.05 0.00 92 1015.5
20260903232005 69 179 8.0 14.0 0.00 0.05 0.00 92 1015.6
20260903225005 69 177 8.0 14.0 0.00 0.05 0.00 92 1016.0
20260903224005 69 179 7.0 15.0 0.00 0.05 0.00 92 1016.1
20260903223005 69 182 8.0 16.0 0.00 0.05 0.00 91 1016.1
20260903222005 69 184 8.0 13.0 0.00 0.05 0.00 92 1016.2
20260903221005 69 182 8.0 16.0 0.00 0.05 0.00 92 1016.3
20260903220010 69 186 8.0 17.0 0.00 0.05 0.00 92 1016.3
20260903215005 69 183 8.0 15.0 0.00 0.05 0.05 92 1016.2
20260903214005 69 176 9.0 15.0 0.00 0.05 0.05 92 1016.6
20260903213005 69 177 8.0 14.0 0.00 0.05 0.05 93 1016.6
20260903212005 69 178 7.0 12.0 0.00 0.05 0.05 93 1016.9
20260903211005 69 178 6.0 11.0 0.00 0.05 0.05 94 1016.9
20260903210007 69 179 6.0 11.0 0.00 0.05 0.05 94 1016.9
20260903205005 69 181 7.0 12.0 0.00 0.05 0.05 94 1017.0
20260903203007 69 183 7.0 13.0 0.00 0.05 0.05 93 1016.9
20260903202005 69 179 8.0 14.0 0.00 0.05 0.05 93 1016.8
20260903200005 70 179 8.0 16.0 0.00 0.05 0.05 91 1016.7
20260903195005 70 175 8.0 17.0 0.00 0.05 0.05 90 1016.9
20260903194005 70 179 6.0 11.0 0.00 0.05 0.05 90 1016.7
20260903193006 70 172 6.0 11.0 0.00 0.05 0.05 90 1016.7
20260903192006 70 170 4.0 7.0 0.00 0.05 0.05 89 1016.8
20260903191006 70 171 4.0 8.0 0.00 0.05 0.05 88 1016.9
20260903190006 70 169 3.0 6.0 0.00 0.05 0.05 87 1016.9
20260903184006 70 172 4.0 7.0 0.00 0.05 0.05 86 1016.9
20260903183006 70 177 4.0 7.0 0.00 0.05 0.05 86 1016.9
20260903182006 71 186 4.0 6.0 0.00 0.05 0.05 84 1017.0
20260903181006 71 188 4.0 8.0 0.00 0.05 0.05 82 1017.1
20260903180006 72 195 4.0 7.0 0.00 0.05 0.05 82 1017.1
20260903175006 72 194 3.0 8.0 0.00 0.05 0.05 81 1017.0
20260903174006 73 199 4.0 9.0 0.00 0.05 0.05 80 1016.9
20260903173006 73 207 5.0 11.0 0.00 0.05 0.05 79 1016.9
20260903172006 74 201 6.0 13.0 0.00 0.05 0.05 77 1017.0
20260903171006 74 201 6.0 14.0 0.00 0.05 0.05 77 1016.9
20260903170006 73 205 5.0 12.0 0.00 0.05 0.05 78 1016.9
20260903165006 74 228 5.0 13.0 0.00 0.05 0.05 78 1017.1
20260903155945 73 227 4.0 9.0 0.00 0.05 0.05 82 1017.0
20260903154945 73 232 4.0 10.0 0.00 0.05 0.05 82 1017.0
20260903153944 73 244 4.0 8.0 0.00 0.05 0.05 82 1017.0
20260903152945 73 238 4.0 10.0 0.00 0.05 0.05 82 1017.0
20260903151944 73 229 6.0 14.0 0.00 0.05 0.05 82 1017.1
20260903145947 73 237 5.0 8.0 0.00 0.05 0.05 82 1017.1
20260903143945 73 227 5.0 10.0 0.00 0.05 0.05 82 1017.1
20260903142944 72 231 3.0 7.0 0.00 0.05 0.05 83 1017.1
20260903140944 72 224 4.0 9.0 0.00 0.05 0.05 85 1017.1
20260903135944 72 233 5.0 11.0 0.00 0.05 0.05 84 1017.1
20260903134943 72 240 5.0 11.0 0.00 0.05 0.05 85 1017.0
20260903133943 72 221 5.0 11.0 0.00 0.05 0.05 82 1017.0
20260903132944 72 198 8.0 17.0 0.00 0.05 0.05 82 1017.0
20260903131944 73 204 8.0 18.0 0.00 0.05 0.05 82 1017.0
20260903130944 72 198 8.0 15.0 0.00 0.05 0.05 80 1017.0
20260903125944 72 218 8.0 16.0 0.00 0.05 0.05 80 1017.0
20260903124944 73 212 7.0 13.0 0.00 0.05 0.05 81 1016.9
20260903123945 72 217 7.0 15.0 0.00 0.05 0.05 81 1016.8
20260903121943 71 204 8.0 16.0 0.00 0.05 0.05 83 1016.7
20260903120944 71 207 9.0 16.0 0.00 0.05 0.05 83 1016.8
20260903115944 72 206 10.0 20.0 0.00 0.05 0.05 83 1016.7
20260903113944 71 203 7.0 14.0 0.00 0.05 0.05 86 1017.1
20260903112944 71 198 8.0 21.0 0.00 0.05 0.05 87 1017.1
20260903111945 70 197 9.0 19.0 0.00 0.05 0.05 89 1017.1
20260903110844 70 196 9.0 17.0 0.00 0.05 0.05 90 1017.0
20260903105843 69 194 9.0 17.0 0.00 0.05 0.05 90 1017.0
20260903104846 69 198 8.0 19.0 0.00 0.05 0.05 91 1017.0
20260903103843 68 189 8.0 17.0 0.00 0.05 0.05 91 1017.1
20260903101843 68 188 8.0 15.0 0.00 0.05 0.05 91 1016.9
20260903100843 68 187 8.0 15.0 0.00 0.05 0.05 91 1016.7
20260903095844 67 193 8.0 16.0 0.00 0.05 0.05 91 1016.6
20260903094844 67 192 8.0 16.0 0.00 0.05 0.05 91 1016.6
20260903093843 67 187 9.0 21.0 0.00 0.05 0.05 91 1016.5
20260903091843 67 186 9.0 17.0 0.00 0.05 0.05 92 1016.4
20260903090843 67 191 8.0 17.0 0.00 0.05 0.05 92 1016.2
20260903085844 67 184 8.0 13.0 0.00 0.05 0.05 93 1016.2
20260903084843 66 185 7.0 12.0 0.00 0.05 0.05 93 1016.2
20260903083844 66 182 8.0 14.0 0.00 0.05 0.05 94 1016.2
20260903082844 66 184 9.0 14.0 0.00 0.05 0.05 94 1016.5
20260903081843 65 187 6.0 11.0 0.01 0.05 0.05 94 1016.5
20260903080844 65 193 7.0 15.0 0.02 0.05 0.05 94 1016.5
20260903075844 65 190 6.0 13.0 0.02 0.05 0.05 94 1016.5
20260903074843 65 192 6.0 12.0 0.05 0.05 0.05 94 1016.5
20260903073843 65 194 5.0 10.0 0.05 0.05 0.05 94 1016.5
20260903072844 65 195 6.0 10.0 0.05 0.05 0.05 93 1016.5
20260903071845 65 193 7.0 13.0 0.04 0.04 0.04 91 1016.5
20260903070844 65 193 7.0 15.0 0.03 0.03 0.03 90 1016.3
20260903065844 66 184 8.0 14.0 0.02 0.02 0.02 87 1016.2
20260903064845 67 182 8.0 15.0 0.00 0.00 0.00 85 1016.2
20260903063844 67 182 8.0 14.0 0.00 0.00 0.00 85 1016.0
20260903062844 67 185 9.0 15.0 0.00 0.00 0.00 84 1016.0
20260903061844 67 183 8.0 15.0 0.00 0.00 0.00 84 1016.0
20260903060843 67 182 7.0 14.0 0.00 0.00 0.00 84 1015.9
20260903055844 67 181 7.0 14.0 0.00 0.00 0.00 84 1015.8
20260903054844 67 173 8.0 16.0 0.00 0.00 0.00 84 1015.8
20260903053845 66 178 7.0 15.0 0.00 0.00 0.00 84 1016.0
20260903052844 66 177 8.0 16.0 0.00 0.00 0.00 84 1016.0
20260903051845 66 177 8.0 16.0 0.00 0.00 0.00 83 1016.0
20260903050844 66 178 8.0 14.0 0.00 0.00 0.00 82 1016.0
20260903045846 66 175 8.0 13.0 0.00 0.00 0.00 82 1015.7
20260903044844 66 170 9.0 16.0 0.00 0.00 0.00 82 1015.7
20260903043844 67 170 9.0 16.0 0.00 0.00 0.00 82 1016.1
20260903040844 66 185 8.0 15.0 0.00 0.00 0.00 80 1016.6
20260903035845 66 188 8.0 15.0 0.00 0.00 0.00 79 1016.2
20260903034844 66 183 8.0 14.0 0.00 0.00 0.00 79 1016.2
20260903033844 66 176 7.0 13.0 0.00 0.00 0.00 78 1016.1
20260903032844 66 172 8.0 14.0 0.00 0.00 0.00 78 1016.5
20260903025845 66 172 7.0 14.0 0.00 0.00 0.00 78 1017.1